"read_dt","SO2 (ppb)","flags","PMT voltage (V)","lamp voltage (V)","lamp intensity (Hz)","internal temp (C)","react chamber temp (C)","sample flow (l/min)","pres (mmHg)","SO2 bkg (ppb)","SO2 coefficient"
2013-07-30 00:00:00,2471E-4,5C000000,-0724,0939,11207,030.0,045.4,0.390,740.6,01.18,0.508
2013-07-30 00:01:00,2800E-4,5C000000,-0724,0938,11243,030.0,045.4,0.389,740.6,01.18,0.508
2013-07-30 00:02:00,1888E-4,5C000000,-0724,0938,11250,030.0,045.4,0.390,740.6,01.18,0.508
2013-07-30 00:03:00,1995E-4,5C000000,-0724,0937,10927,030.0,045.4,0.390,740.6,01.18,0.508
2013-07-30 00:04:00,2413E-4,5C000000,-0724,0938,10962,030.0,045.4,0.389,740.6,01.18,0.508
2013-07-30 00:05:00,1225E-4,5C000000,-0724,0938,11221,029.9,045.4,0.390,740.6,01.18,0.508
2013-07-30 00:06:00,1423E-4,5C000000,-0724,0939,11052,029.9,045.4,0.390,740.6,01.18,0.508
2013-07-30 00:07:00,2009E-4,5C000000,-0724,0938,11255,029.9,045.4,0.389,740.6,01.18,0.508
2013-07-30 00:08:00,1785E-4,5C000000,-0724,0938,11133,029.9,045.4,0.390,740.6,01.18,0.508
2013-07-30 00:09:00,2251E-4,5C000000,-0724,0938,11338,029.9,045.4,0.390,740.6,01.18,0.508
2013-07-30 00:10:00,2207E-4,5C000000,-0724,0938,11122,030.0,045.4,0.389,740.6,01.18,0.508
2013-07-30 00:11:00,2142E-4,5C000000,-0724,0938,11147,030.0,045.4,0.390,740.6,01.18,0.508
2013-07-30 00:12:00,1229E-4,5C000000,-0724,0938,11078,030.0,045.4,0.390,740.6,01.18,0.508
2013-07-30 00:13:00,1433E-4,5C000000,-0724,0939,11199,029.9,045.4,0.389,740.6,01.18,0.508
2013-07-30 00:14:00,2127E-4,5C000000,-0724,0938,11212,029.9,045.4,0.390,740.6,01.18,0.508
2013-07-30 00:15:00,2759E-4,5C000000,-0724,0938,11046,029.9,045.4,0.390,740.6,01.18,0.508
2013-07-30 00:16:00,1756E-4,5C000000,-0724,0939,11110,029.9,045.4,0.389,740.6,01.18,0.508
2013-07-30 00:17:00,1945E-4,5C000000,-0724,0939,11123,029.9,045.4,0.390,740.6,01.18,0.508
2013-07-30 00:18:00,1686E-4,5C000000,-0724,0938,11077,029.9,045.4,0.390,740.6,01.18,0.508
2013-07-30 00:19:00,1705E-4,5C000000,-0724,0939,11297,029.9,045.4,0.389,740.6,01.18,0.508
2013-07-30 00:20:00,1285E-4,5C000000,-0724,0938,11040,029.9,045.4,0.390,740.6,01.18,0.508
2013-07-30 00:21:00,2005E-4,5C000000,-0724,0938,11191,029.9,045.4,0.390,740.6,01.18,0.508
2013-07-30 00:22:00,1647E-4,5C000000,-0724,0939,11187,029.9,045.4,0.390,740.6,01.18,0.508
2013-07-30 00:23:00,1865E-4,5C000000,-0724,0938,11129,029.9,045.4,0.390,740.6,01.18,0.508
2013-07-30 00:24:00,1720E-4,5C000000,-0724,0939,11111,029.9,045.4,0.390,740.6,01.18,0.508
2013-07-30 00:25:00,1373E-4,5C000000,-0724,0939,11134,029.9,045.4,0.390,740.6,01.18,0.508
2013-07-30 00:26:00,1519E-4,5C000000,-0724,0938,11065,029.9,045.4,0.390,740.6,01.18,0.508
2013-07-30 00:27:00,2302E-4,5C000000,-0724,0938,11161,029.9,045.4,0.390,740.6,01.18,0.508
2013-07-30 00:28:00,2001E-4,5C000000,-0724,0938,10971,029.9,045.4,0.390,740.6,01.18,0.508
2013-07-30 00:29:00,3171E-4,5C000000,-0724,0939,11222,029.9,045.4,0.390,740.6,01.18,0.508
2013-07-30 00:30:00,1750E-4,5C000000,-0724,0937,11046,029.9,045.4,0.390,740.6,01.18,0.508
2013-07-30 00:31:00,2250E-4,5C000000,-0724,0938,11140,029.9,045.4,0.390,740.6,01.18,0.508
2013-07-30 00:32:00,2011E-4,5C000000,-0724,0938,11080,029.9,045.4,0.390,740.6,01.18,0.508
2013-07-30 00:33:00,2378E-4,5C000000,-0724,0938,11124,029.9,045.4,0.390,740.6,01.18,0.508
2013-07-30 00:34:00,1927E-4,5C000000,-0724,0938,11244,029.9,045.4,0.390,740.6,01.18,0.508
2013-07-30 00:35:00,1892E-4,5C000000,-0724,0939,11116,029.9,045.4,0.390,740.6,01.18,0.508
2013-07-30 00:36:00,1281E-4,5C000000,-0724,0939,11204,029.9,045.4,0.390,740.6,01.18,0.508
2013-07-30 00:37:00,1980E-4,5C000000,-0724,0938,11162,029.9,045.4,0.390,740.6,01.18,0.508
2013-07-30 00:38:00,1552E-4,5C000000,-0724,0938,11224,029.9,045.4,0.390,740.6,01.18,0.508
2013-07-30 00:39:00,2139E-4,5C000000,-0724,0938,11181,029.9,045.4,0.390,740.6,01.18,0.508
2013-07-30 00:40:00,3015E-4,5C000000,-0724,0938,11195,029.9,045.4,0.390,740.6,01.18,0.508
2013-07-30 00:41:00,2394E-4,5C000000,-0724,0938,11177,029.9,045.4,0.390,740.6,01.18,0.508
2013-07-30 00:42:00,1722E-4,5C000000,-0724,0938,11140,029.9,045.4,0.390,740.6,01.18,0.508
2013-07-30 00:43:00,2521E-4,5C000000,-0724,0938,11065,029.9,045.4,0.390,740.6,01.18,0.508
2013-07-30 00:44:00,1532E-4,5C000000,-0724,0938,11228,029.9,045.4,0.390,740.6,01.18,0.508
2013-07-30 00:45:00,2329E-4,5C000000,-0724,0938,11180,029.9,045.4,0.390,740.6,01.18,0.508
2013-07-30 00:46:00,2327E-4,5C000000,-0724,0938,11110,029.9,045.4,0.390,740.6,01.18,0.508
2013-07-30 00:47:00,1886E-4,5C000000,-0724,0938,11224,029.9,045.4,0.390,740.6,01.18,0.508
2013-07-30 00:48:00,1941E-4,5C000000,-0724,0938,11096,029.9,045.4,0.389,740.6,01.18,0.508
2013-07-30 00:49:00,1481E-4,5C000000,-0724,0939,11197,029.9,045.4,0.390,740.6,01.18,0.508
2013-07-30 00:50:00,2548E-4,5C000000,-0724,0938,11078,029.9,045.4,0.390,740.6,01.18,0.508
2013-07-30 00:51:00,1973E-4,5C000000,-0724,0938,10968,029.9,045.4,0.390,740.6,01.18,0.508
2013-07-30 00:52:00,1385E-4,5C000000,-0724,0938,11199,029.9,045.4,0.390,740.6,01.18,0.508
2013-07-30 00:53:00,1870E-4,5C000000,-0724,0938,11134,029.9,045.4,0.390,740.6,01.18,0.508
2013-07-30 00:54:00,2059E-4,5C000000,-0724,0938,11151,029.9,045.4,0.390,740.6,01.18,0.508
2013-07-30 00:55:00,1540E-4,5C000000,-0724,0938,11096,029.9,045.4,0.390,740.6,01.18,0.508
2013-07-30 00:56:00,2239E-4,5C000000,-0724,0938,11262,029.9,045.4,0.389,740.6,01.18,0.508
2013-07-30 00:57:00,2409E-4,5C000000,-0724,0938,11090,029.9,045.4,0.390,740.6,01.18,0.508
2013-07-30 00:58:00,2318E-4,5C000000,-0724,0938,11094,029.9,045.4,0.390,740.6,01.18,0.508
2013-07-30 00:59:00,2259E-4,5C000000,-0724,0938,11138,029.9,045.4,0.389,740.6,01.18,0.508
2013-07-30 01:00:00,2666E-4,5C000000,-0724,0938,10937,029.9,045.4,0.390,740.6,01.18,0.508
2013-07-30 01:01:00,1986E-4,5C000000,-0724,0939,11084,029.9,045.4,0.390,740.6,01.18,0.508
2013-07-30 01:02:00,1521E-4,5C000000,-0724,0939,11240,029.9,045.4,0.390,740.6,01.18,0.508
2013-07-30 01:03:00,2857E-4,5C000000,-0724,0939,11102,029.9,045.4,0.390,740.5,01.18,0.508
2013-07-30 01:04:00,1924E-4,5C000000,-0724,0938,11213,029.9,045.4,0.389,740.6,01.18,0.508
2013-07-30 01:05:00,1326E-4,5C000000,-0724,0939,11001,029.9,045.4,0.390,740.5,01.18,0.508
2013-07-30 01:06:00,1933E-4,5C000000,-0724,0938,11151,029.9,045.4,0.390,740.5,01.18,0.508
2013-07-30 01:07:00,1630E-4,5C000000,-0724,0938,11144,029.9,045.4,0.389,740.5,01.18,0.508
2013-07-30 01:08:00,2091E-4,5C000000,-0724,0938,11090,029.9,045.4,0.390,740.5,01.18,0.508
2013-07-30 01:09:00,2194E-4,5C000000,-0724,0939,11189,029.9,045.4,0.390,740.5,01.18,0.508
2013-07-30 01:10:00,1916E-4,5C000000,-0724,0939,11195,029.9,045.4,0.390,740.5,01.18,0.508
2013-07-30 01:11:00,1612E-4,5C000000,-0724,0939,11295,029.9,045.4,0.390,740.5,01.18,0.508
2013-07-30 01:12:00,1153E-4,5C000000,-0724,0938,11183,029.9,045.4,0.389,740.5,01.18,0.508
2013-07-30 01:13:00,1669E-4,5C000000,-0724,0939,10913,029.9,045.4,0.390,740.3,01.18,0.508
2013-07-30 01:14:00,1940E-4,5C000000,-0724,0939,11043,029.9,045.4,0.390,740.4,01.18,0.508
2013-07-30 01:15:00,1994E-4,5C000000,-0724,0938,11017,029.9,045.4,0.389,740.5,01.18,0.508
2013-07-30 01:16:00,1546E-4,5C000000,-0724,0939,11178,029.9,045.4,0.390,740.4,01.18,0.508
2013-07-30 01:17:00,2428E-4,5C000000,-0724,0938,11170,029.9,045.4,0.390,740.5,01.18,0.508
2013-07-30 01:18:00,1541E-4,5C000000,-0724,0938,10981,029.9,045.4,0.390,740.5,01.18,0.508
2013-07-30 01:19:00,1557E-4,5C000000,-0724,0938,11126,029.9,045.4,0.390,740.3,01.18,0.508
2013-07-30 01:20:00,2324E-4,5C000000,-0724,0937,11079,029.9,045.4,0.389,740.3,01.18,0.508
2013-07-30 01:21:00,1552E-4,5C000000,-0724,0939,11179,029.9,045.4,0.390,740.5,01.18,0.508
2013-07-30 01:22:00,1704E-4,5C000000,-0724,0938,10985,029.9,045.4,0.390,740.5,01.18,0.508
2013-07-30 01:23:00,3308E-4,5C000000,-0724,0938,11072,029.9,045.4,0.389,740.5,01.18,0.508
2013-07-30 01:24:00,2152E-4,5C000000,-0724,0939,11277,029.9,045.4,0.390,740.5,01.18,0.508
2013-07-30 01:25:00,1254E-4,5C000000,-0724,0938,11183,029.9,045.4,0.390,740.5,01.18,0.508
2013-07-30 01:26:00,1935E-4,5C000000,-0724,0939,11286,029.9,045.4,0.390,740.5,01.18,0.508
2013-07-30 01:27:00,2456E-4,5C000000,-0724,0939,11151,029.9,045.4,0.390,740.6,01.18,0.508
2013-07-30 01:28:00,1719E-4,5C000000,-0724,0939,11231,029.9,045.4,0.389,740.5,01.18,0.508
2013-07-30 01:29:00,2069E-4,5C000000,-0724,0939,11101,029.9,045.4,0.390,740.6,01.18,0.508
2013-07-30 01:30:00,2070E-4,5C000000,-0724,0939,11026,029.9,045.4,0.390,740.6,01.18,0.508
2013-07-30 01:31:00,2382E-4,5C000000,-0724,0938,11247,029.9,045.4,0.389,740.6,01.18,0.508
2013-07-30 01:32:00,1738E-4,5C000000,-0724,0938,11113,029.9,045.4,0.390,740.5,01.18,0.508
2013-07-30 01:33:00,9268E-5,5C000000,-0724,0938,11150,029.9,045.4,0.390,740.5,01.18,0.508
2013-07-30 01:34:00,2205E-4,5C000000,-0724,0937,11020,029.9,045.4,0.389,740.5,01.18,0.508
2013-07-30 01:35:00,9833E-5,5C000000,-0724,0939,11199,029.9,045.4,0.390,740.5,01.18,0.508
2013-07-30 01:36:00,2102E-4,5C000000,-0724,0939,11153,029.9,045.4,0.389,740.3,01.18,0.508
2013-07-30 01:37:00,1464E-4,5C000000,-0724,0939,11227,029.9,045.4,0.390,740.4,01.18,0.508
2013-07-30 01:38:00,2005E-4,5C000000,-0724,0939,11277,029.9,045.4,0.390,740.3,01.18,0.508
2013-07-30 01:39:00,2140E-4,5C000000,-0724,0938,11122,029.9,045.4,0.389,740.2,01.18,0.508
2013-07-30 01:40:00,1822E-4,5C000000,-0724,0939,11152,029.9,045.4,0.390,740.3,01.18,0.508
2013-07-30 01:41:00,1604E-4,5C000000,-0724,0939,11171,029.9,045.4,0.390,740.3,01.18,0.508
2013-07-30 01:42:00,2632E-4,5C000000,-0724,0939,11213,029.9,045.4,0.390,740.2,01.18,0.508
2013-07-30 01:43:00,2547E-4,5C000000,-0724,0938,11229,029.9,045.4,0.390,740.2,01.18,0.508
2013-07-30 01:44:00,1754E-4,5C000000,-0724,0938,11001,029.9,045.4,0.389,740.2,01.18,0.508
2013-07-30 01:45:00,2352E-4,5C000000,-0724,0939,11188,029.9,045.4,0.390,740.2,01.18,0.508
2013-07-30 01:46:00,1151E-4,5C000000,-0724,0938,11244,029.9,045.4,0.390,740.2,01.18,0.508
2013-07-30 01:47:00,1972E-4,5C000000,-0724,0939,11002,029.9,045.4,0.389,740.2,01.18,0.508
2013-07-30 01:48:00,1999E-4,5C000000,-0724,0939,11144,029.9,045.4,0.390,740.2,01.18,0.508
2013-07-30 01:49:00,1843E-4,5C000000,-0724,0939,10926,029.9,045.4,0.389,740.2,01.18,0.508
2013-07-30 01:50:00,2461E-4,5C000000,-0724,0940,11242,029.9,045.4,0.390,740.2,01.18,0.508
2013-07-30 01:51:00,1023E-4,5C000000,-0724,0940,11025,029.9,045.4,0.390,740.2,01.18,0.508
2013-07-30 01:52:00,1698E-4,5C000000,-0724,0940,11167,029.9,045.4,0.389,740.2,01.18,0.508
2013-07-30 01:53:00,2853E-4,5C000000,-0724,0939,11096,029.9,045.4,0.390,740.2,01.18,0.508
2013-07-30 01:54:00,1542E-4,5C000000,-0724,0938,11094,029.9,045.4,0.390,740.2,01.18,0.508
2013-07-30 01:55:00,2931E-4,5C000000,-0724,0938,11149,029.9,045.4,0.389,740.1,01.18,0.508
2013-07-30 01:56:00,2059E-4,5C000000,-0724,0938,11133,029.9,045.4,0.390,740.1,01.18,0.508
2013-07-30 01:57:00,2056E-4,5C000000,-0724,0940,11006,029.9,045.4,0.389,740.1,01.18,0.508
2013-07-30 01:58:00,1933E-4,5C000000,-0724,0939,11174,029.9,045.4,0.390,740.1,01.18,0.508
2013-07-30 01:59:00,1841E-4,5C000000,-0724,0939,11132,029.9,045.4,0.390,740.1,01.18,0.508
2013-07-30 02:00:00,2047E-4,5C000000,-0724,0939,11181,030.0,045.4,0.389,740.1,01.18,0.508
2013-07-30 02:01:00,1288E-4,5C000000,-0724,0938,11043,030.0,045.4,0.390,740.1,01.18,0.508
2013-07-30 02:02:00,2532E-4,5C000000,-0724,0938,11195,030.0,045.4,0.389,740.0,01.18,0.508
2013-07-30 02:03:00,1707E-4,5C000000,-0724,0939,11165,030.0,045.4,0.390,740.0,01.18,0.508
2013-07-30 02:04:00,1592E-4,5C000000,-0724,0938,11277,030.0,045.4,0.389,740.1,01.18,0.508
2013-07-30 02:05:00,1919E-4,5C000000,-0724,0939,11140,030.0,045.4,0.390,740.1,01.18,0.508
2013-07-30 02:06:00,1056E-4,5C000000,-0724,0939,11120,030.0,045.4,0.389,740.0,01.18,0.508
2013-07-30 02:07:00,1470E-4,5C000000,-0724,0938,11217,030.0,045.4,0.389,740.0,01.18,0.508
2013-07-30 02:08:00,1878E-4,5C000000,-0724,0938,11037,030.0,045.4,0.390,740.0,01.18,0.508
2013-07-30 02:09:00,1888E-4,5C000000,-0724,0938,11145,030.0,045.4,0.389,740.1,01.18,0.508
2013-07-30 02:10:00,1951E-4,5C000000,-0724,0938,11172,030.0,045.4,0.390,740.1,01.18,0.508
2013-07-30 02:11:00,2426E-4,5C000000,-0724,0939,11047,030.0,045.4,0.390,740.1,01.18,0.508
2013-07-30 02:12:00,2106E-4,5C000000,-0724,0939,11170,030.0,045.4,0.389,740.0,01.18,0.508
2013-07-30 02:13:00,2590E-4,5C000000,-0724,0939,11216,030.0,045.4,0.390,740.0,01.18,0.508
2013-07-30 02:14:00,1814E-4,5C000000,-0724,0939,11122,030.0,045.4,0.389,740.1,01.18,0.508
2013-07-30 02:15:00,2254E-4,5C000000,-0724,0940,10991,030.0,045.4,0.389,740.1,01.18,0.508
2013-07-30 02:16:00,1695E-4,5C000000,-0724,0939,11111,030.0,045.4,0.390,740.1,01.18,0.508
2013-07-30 02:17:00,2640E-4,5C000000,-0724,0939,11092,030.0,045.4,0.389,740.1,01.18,0.508
2013-07-30 02:18:00,2644E-4,5C000000,-0724,0939,11181,030.0,045.4,0.390,740.1,01.18,0.508
2013-07-30 02:19:00,2311E-4,5C000000,-0724,0939,11048,030.0,045.4,0.390,740.1,01.18,0.508
2013-07-30 02:20:00,1678E-4,5C000000,-0724,0938,11183,030.0,045.4,0.389,740.1,01.18,0.508
2013-07-30 02:21:00,1763E-4,5C000000,-0724,0938,11157,030.0,045.4,0.390,740.1,01.18,0.508
2013-07-30 02:22:00,2481E-4,5C000000,-0724,0938,11114,030.0,045.4,0.389,740.0,01.18,0.508
2013-07-30 02:23:00,2551E-4,5C000000,-0724,0938,11074,030.0,045.4,0.389,740.0,01.18,0.508
2013-07-30 02:24:00,2076E-4,5C000000,-0724,0938,11096,030.0,045.4,0.390,740.1,01.18,0.508
2013-07-30 02:25:00,2013E-4,5C000000,-0724,0939,11146,030.0,045.4,0.389,740.0,01.18,0.508
2013-07-30 02:26:00,1404E-4,5C000000,-0724,0939,11022,030.0,045.4,0.389,740.0,01.18,0.508
2013-07-30 02:27:00,2374E-4,5C000000,-0724,0939,11098,030.0,045.4,0.390,740.0,01.18,0.508
2013-07-30 02:28:00,1926E-4,5C000000,-0724,0940,11163,030.0,045.4,0.389,740.0,01.18,0.508
2013-07-30 02:29:00,2274E-4,5C000000,-0724,0940,11082,030.0,045.4,0.390,740.0,01.18,0.508
2013-07-30 02:30:00,2295E-4,5C000000,-0724,0939,11155,030.0,045.4,0.389,740.0,01.18,0.508
2013-07-30 02:31:00,1690E-4,5C000000,-0724,0938,11008,030.0,045.4,0.389,740.0,01.18,0.508
2013-07-30 02:32:00,1965E-4,5C000000,-0724,0938,11088,030.0,045.4,0.390,740.0,01.18,0.508
2013-07-30 02:33:00,1354E-4,5C000000,-0724,0939,10960,030.1,045.4,0.389,739.9,01.18,0.508
2013-07-30 02:34:00,2621E-4,5C000000,-0724,0939,11185,030.0,045.4,0.389,740.0,01.18,0.508
2013-07-30 02:35:00,2072E-4,5C000000,-0724,0939,11153,030.0,045.4,0.390,739.9,01.18,0.508
2013-07-30 02:36:00,1724E-4,5C000000,-0724,0939,11197,030.1,045.4,0.389,739.9,01.18,0.508
2013-07-30 02:37:00,1045E-4,5C000000,-0724,0938,11007,030.0,045.4,0.389,739.9,01.18,0.508
2013-07-30 02:38:00,4903E-5,5C000000,-0724,0939,11170,030.1,045.4,0.389,740.0,01.18,0.508
2013-07-30 02:39:00,1970E-4,5C000000,-0724,0938,11128,030.1,045.4,0.389,740.0,01.18,0.508
2013-07-30 02:40:00,2334E-4,5C000000,-0724,0938,11170,030.1,045.4,0.389,739.9,01.18,0.508
2013-07-30 02:41:00,1559E-4,5C000000,-0724,0939,11029,030.1,045.4,0.389,739.9,01.18,0.508
2013-07-30 02:42:00,2129E-4,5C000000,-0724,0939,10991,030.1,045.4,0.389,739.9,01.18,0.508
2013-07-30 02:43:00,2700E-4,5C000000,-0724,0939,11003,030.1,045.4,0.390,739.9,01.18,0.508
2013-07-30 02:44:00,6163E-5,5C000000,-0724,0939,11149,030.1,045.4,0.389,739.9,01.18,0.508
2013-07-30 02:45:00,1645E-4,5C000000,-0724,0940,11156,030.1,045.4,0.389,739.9,01.18,0.508
2013-07-30 02:46:00,1828E-4,5C000000,-0724,0939,11080,030.1,045.4,0.390,740.0,01.18,0.508
2013-07-30 02:47:00,1454E-4,5C000000,-0724,0938,11021,030.1,045.4,0.389,740.0,01.18,0.508
2013-07-30 02:48:00,2117E-4,5C000000,-0724,0939,11180,030.1,045.4,0.389,740.1,01.18,0.508
2013-07-30 02:49:00,2384E-4,5C000000,-0724,0939,11140,030.1,045.4,0.390,740.0,01.18,0.508
2013-07-30 02:50:00,2598E-4,5C000000,-0724,0939,10930,030.1,045.4,0.389,740.1,01.18,0.508
2013-07-30 02:51:00,1069E-4,5C000000,-0724,0940,11195,030.1,045.4,0.389,740.0,01.18,0.508
2013-07-30 02:52:00,2243E-4,5C000000,-0724,0939,11155,030.1,045.4,0.390,740.0,01.18,0.508
2013-07-30 02:53:00,2388E-4,5C000000,-0724,0940,11090,030.1,045.4,0.389,740.1,01.18,0.508
2013-07-30 02:54:00,3135E-4,5C000000,-0724,0939,11219,030.1,045.4,0.389,740.0,01.18,0.508
2013-07-30 02:55:00,2724E-4,5C000000,-0724,0939,11180,030.1,045.4,0.390,740.1,01.18,0.508
2013-07-30 02:56:00,1520E-4,5C000000,-0724,0938,11026,030.1,045.4,0.389,740.1,01.18,0.508
2013-07-30 02:57:00,1830E-4,5C000000,-0724,0938,11154,030.1,045.4,0.389,740.1,01.18,0.508
2013-07-30 02:58:00,2530E-4,5C000000,-0724,0939,11138,030.1,045.4,0.390,740.1,01.18,0.508
2013-07-30 02:59:00,1512E-4,5C000000,-0724,0940,11243,030.1,045.4,0.389,740.1,01.18,0.508
2013-07-30 03:00:00,2209E-4,5C000000,-0724,0940,11085,030.1,045.4,0.389,740.1,01.18,0.508
2013-07-30 03:01:00,2185E-4,5C000000,-0724,0939,11042,030.1,045.4,0.390,740.1,01.18,0.508
2013-07-30 03:02:00,2485E-4,5C000000,-0724,0938,11239,030.1,045.4,0.389,740.1,01.18,0.508
2013-07-30 03:03:00,1598E-4,5C000000,-0724,0939,11141,030.1,045.4,0.389,740.1,01.18,0.508
2013-07-30 03:04:00,1586E-4,5C000000,-0724,0939,11071,030.1,045.4,0.389,740.1,01.18,0.508
2013-07-30 03:05:00,2063E-4,5C000000,-0724,0939,11069,030.1,045.4,0.389,740.1,01.18,0.508
2013-07-30 03:06:00,2799E-4,5C000000,-0724,0940,11057,030.1,045.4,0.389,740.1,01.18,0.508
2013-07-30 03:07:00,2620E-4,5C000000,-0724,0939,11127,030.1,045.4,0.389,740.1,01.18,0.508
2013-07-30 03:08:00,2490E-4,5C000000,-0724,0939,11126,030.1,045.4,0.390,740.1,01.18,0.508
2013-07-30 03:09:00,7286E-5,5C000000,-0724,0939,11176,030.1,045.4,0.389,740.1,01.18,0.508
2013-07-30 03:10:00,2207E-4,5C000000,-0724,0940,11224,030.1,045.4,0.389,740.0,01.18,0.508
2013-07-30 03:11:00,1959E-4,5C000000,-0724,0939,10980,030.1,045.4,0.390,740.0,01.18,0.508
2013-07-30 03:12:00,2053E-4,5C000000,-0724,0939,11231,030.1,045.4,0.389,740.0,01.18,0.508
2013-07-30 03:13:00,1800E-4,5C000000,-0724,0939,11217,030.1,045.4,0.389,740.0,01.18,0.508
2013-07-30 03:14:00,2037E-4,5C000000,-0724,0938,11159,030.1,045.4,0.390,740.0,01.18,0.508
2013-07-30 03:15:00,1524E-4,5C000000,-0724,0939,11178,030.1,045.4,0.389,739.9,01.18,0.508
2013-07-30 03:16:00,1362E-4,5C000000,-0724,0939,11196,030.1,045.4,0.389,739.9,01.18,0.508
2013-07-30 03:17:00,1011E-4,5C000000,-0724,0939,11068,030.1,045.4,0.389,739.9,01.18,0.508
2013-07-30 03:18:00,1908E-4,5C000000,-0724,0938,11150,030.1,045.4,0.389,739.9,01.18,0.508
2013-07-30 03:19:00,2414E-4,5C000000,-0724,0939,11140,030.1,045.4,0.389,739.8,01.18,0.508
2013-07-30 03:20:00,2638E-4,5C000000,-0724,0938,11201,030.1,045.4,0.390,739.9,01.18,0.508
2013-07-30 03:21:00,2402E-4,5C000000,-0724,0938,11101,030.2,045.4,0.389,739.9,01.18,0.508
2013-07-30 03:22:00,1745E-4,5C000000,-0724,0940,11041,030.1,045.4,0.389,739.9,01.18,0.508
2013-07-30 03:23:00,2493E-4,5C000000,-0724,0939,11102,030.1,045.4,0.389,739.9,01.18,0.508
2013-07-30 03:24:00,1798E-4,5C000000,-0724,0940,11221,030.1,045.4,0.389,739.8,01.18,0.508
2013-07-30 03:25:00,1719E-4,5C000000,-0724,0939,10975,030.1,045.4,0.389,739.8,01.18,0.508
2013-07-30 03:26:00,9485E-5,5C000000,-0724,0939,11046,030.1,045.4,0.389,739.8,01.18,0.508
2013-07-30 03:27:00,1791E-4,5C000000,-0724,0939,11124,030.1,045.4,0.389,739.8,01.18,0.508
2013-07-30 03:28:00,2961E-4,5C000000,-0724,0938,11147,030.2,045.4,0.389,739.9,01.18,0.508
2013-07-30 03:29:00,1455E-4,5C000000,-0724,0938,11068,030.1,045.4,0.390,739.8,01.18,0.508
2013-07-30 03:30:00,1817E-4,5C000000,-0724,0940,10867,030.1,045.4,0.389,739.9,01.18,0.508
2013-07-30 03:31:00,2051E-4,5C000000,-0724,0940,11044,030.2,045.4,0.389,739.9,01.18,0.508
2013-07-30 03:32:00,1257E-4,5C000000,-0724,0938,10966,030.2,045.4,0.389,739.9,01.18,0.508
2013-07-30 03:33:00,1721E-4,5C000000,-0724,0939,11054,030.2,045.4,0.389,739.9,01.18,0.508
2013-07-30 03:34:00,1272E-4,5C000000,-0724,0939,11054,030.2,045.4,0.389,739.9,01.18,0.508
2013-07-30 03:35:00,2570E-4,5C000000,-0724,0939,11179,030.2,045.4,0.390,739.9,01.18,0.508
2013-07-30 03:36:00,1933E-4,5C000000,-0724,0939,11168,030.2,045.4,0.389,739.9,01.18,0.508
2013-07-30 03:37:00,2125E-4,5C000000,-0724,0940,11130,030.2,045.4,0.389,739.9,01.18,0.508
2013-07-30 03:38:00,2385E-4,5C000000,-0724,0939,11208,030.2,045.4,0.389,739.9,01.18,0.508
2013-07-30 03:39:00,1789E-4,5C000000,-0724,0939,10974,030.2,045.4,0.389,739.9,01.18,0.508
2013-07-30 03:40:00,1900E-4,5C000000,-0724,0939,10948,030.2,045.4,0.389,739.8,01.18,0.508
2013-07-30 03:41:00,1949E-4,5C000000,-0724,0939,11104,030.2,045.4,0.389,739.7,01.18,0.508
2013-07-30 03:42:00,1956E-4,5C000000,-0724,0939,11122,030.2,045.4,0.389,739.7,01.18,0.508
2013-07-30 03:43:00,1546E-4,5C000000,-0724,0938,11114,030.2,045.4,0.389,739.7,01.18,0.508
2013-07-30 03:44:00,3037E-4,5C000000,-0724,0939,11118,030.2,045.5,0.389,739.8,01.18,0.508
2013-07-30 03:45:00,1769E-4,5C000000,-0724,0939,11160,030.2,045.4,0.389,739.7,01.18,0.508
2013-07-30 03:46:00,2600E-4,5C000000,-0724,0939,11029,030.2,045.4,0.389,739.8,01.18,0.508
2013-07-30 03:47:00,2922E-4,5C000000,-0724,0939,11128,030.2,045.4,0.389,739.7,01.18,0.508
2013-07-30 03:48:00,1838E-4,5C000000,-0724,0940,10923,030.2,045.4,0.389,739.7,01.18,0.508
2013-07-30 03:49:00,2411E-4,5C000000,-0724,0939,11065,030.2,045.4,0.389,739.7,01.18,0.508
2013-07-30 03:50:00,1736E-4,5C000000,-0724,0939,11157,030.2,045.4,0.389,739.7,01.18,0.508
2013-07-30 03:51:00,1862E-4,5C000000,-0724,0941,11055,030.2,045.4,0.389,739.8,01.18,0.508
2013-07-30 03:52:00,1928E-4,5C000000,-0724,0939,11249,030.2,045.4,0.389,739.8,01.18,0.508
2013-07-30 03:53:00,1627E-4,5C000000,-0724,0941,11181,030.2,045.4,0.389,739.8,01.18,0.508
2013-07-30 03:54:00,2040E-4,5C000000,-0724,0939,11087,030.2,045.4,0.389,739.8,01.18,0.508
2013-07-30 03:55:00,2330E-4,5C000000,-0724,0940,11052,030.3,045.4,0.389,739.8,01.18,0.508
2013-07-30 03:56:00,2051E-4,5C000000,-0724,0939,11035,030.2,045.4,0.389,739.7,01.18,0.508
2013-07-30 03:57:00,1859E-4,5C000000,-0724,0939,11059,030.3,045.4,0.389,739.7,01.18,0.508
2013-07-30 03:58:00,1954E-4,5C000000,-0724,0939,11282,030.3,045.4,0.389,739.7,01.18,0.508
2013-07-30 03:59:00,2161E-4,5C000000,-0724,0939,11056,030.3,045.4,0.389,739.6,01.18,0.508
2013-07-30 04:00:00,2038E-4,5C000000,-0724,0939,11156,030.3,045.4,0.389,739.6,01.18,0.508
2013-07-30 04:01:00,2054E-4,5C000000,-0724,0939,11134,030.3,045.4,0.389,739.6,01.18,0.508
2013-07-30 04:02:00,2923E-4,5C000000,-0724,0939,11227,030.3,045.4,0.389,739.7,01.18,0.508
2013-07-30 04:03:00,1203E-4,5C000000,-0724,0939,11029,030.3,045.4,0.389,739.7,01.18,0.508
2013-07-30 04:04:00,1224E-4,5C000000,-0724,0940,11047,030.2,045.4,0.389,739.7,01.18,0.508
2013-07-30 04:05:00,1975E-4,5C000000,-0724,0939,11047,030.3,045.4,0.389,739.6,01.18,0.508
2013-07-30 04:06:00,1564E-4,5C000000,-0724,0939,11178,030.3,045.4,0.389,739.6,01.18,0.508
2013-07-30 04:07:00,1687E-4,5C000000,-0724,0940,10824,030.3,045.4,0.388,739.6,01.18,0.508
2013-07-30 04:08:00,1975E-4,5C000000,-0724,0939,10994,030.3,045.4,0.389,739.6,01.18,0.508
2013-07-30 04:09:00,2204E-4,5C000000,-0724,0939,11065,030.3,045.4,0.388,739.6,01.18,0.508
2013-07-30 04:10:00,3286E-4,5C000000,-0724,0939,11161,030.3,045.4,0.389,739.5,01.18,0.508
2013-07-30 04:11:00,3535E-4,5C000000,-0724,0939,11200,030.3,045.4,0.389,739.5,01.18,0.508
2013-07-30 04:12:00,1893E-4,5C000000,-0724,0939,11094,030.3,045.4,0.388,739.5,01.18,0.508
2013-07-30 04:13:00,1064E-4,5C000000,-0724,0939,11022,030.3,045.4,0.389,739.5,01.18,0.508
2013-07-30 04:14:00,2463E-4,5C000000,-0724,0939,11123,030.3,045.4,0.389,739.5,01.18,0.508
2013-07-30 04:15:00,2084E-4,5C000000,-0724,0940,11209,030.3,045.4,0.388,739.5,01.18,0.508
2013-07-30 04:16:00,1293E-4,5C000000,-0724,0939,11204,030.3,045.4,0.389,739.5,01.18,0.508
2013-07-30 04:17:00,1753E-4,5C000000,-0724,0941,11255,030.3,045.4,0.389,739.5,01.18,0.508
2013-07-30 04:18:00,3017E-4,5C000000,-0724,0939,11008,030.3,045.4,0.388,739.5,01.18,0.508
2013-07-30 04:19:00,2123E-4,5C000000,-0724,0940,11173,030.3,045.4,0.389,739.5,01.18,0.508
2013-07-30 04:20:00,1087E-4,5C000000,-0724,0939,11149,030.3,045.4,0.389,739.5,01.18,0.508